TimeMDT,TemperatureF,Dew PointF,Humidity,Sea Level PressureIn,VisibilityMPH,Wind Direction,Wind SpeedMPH,Gust SpeedMPH,PrecipitationIn,Events,Conditions,WindDirDegrees,DateUTC
12:53 AM,52.0,46.0,80,29.93,10.0,WSW,6.9,-,N/A,,Clear,250,2013-06-09 06:53:00
1:53 AM,53.1,46.9,80,29.91,10.0,West,8.1,-,N/A,,Clear,260,2013-06-09 07:53:00
2:53 AM,52.0,46.9,83,29.92,10.0,WSW,11.5,-,N/A,,Clear,250,2013-06-09 08:53:00
3:53 AM,53.1,46.0,77,29.89,10.0,West,8.1,-,N/A,,Clear,260,2013-06-09 09:53:00
4:53 AM,53.1,46.0,77,29.92,10.0,West,8.1,-,N/A,,Clear,270,2013-06-09 10:53:00
5:53 AM,54.0,46.0,75,29.93,10.0,West,11.5,-,N/A,,Clear,280,2013-06-09 11:53:00
6:53 AM,57.0,48.0,72,29.95,10.0,NNW,10.4,-,N/A,,Clear,340,2013-06-09 12:53:00
7:53 AM,63.0,51.1,65,29.94,10.0,North,9.2,-,N/A,,Clear,350,2013-06-09 13:53:00
8:53 AM,69.1,46.9,45,29.96,10.0,North,6.9,-,N/A,,Clear,10,2013-06-09 14:53:00
9:53 AM,72.0,46.9,41,29.96,10.0,North,4.6,-,N/A,,Clear,360,2013-06-09 15:53:00
10:53 AM,75.9,46.0,35,29.95,10.0,NNW,9.2,-,N/A,,Clear,330,2013-06-09 16:53:00
11:53 AM,77.0,44.1,31,29.93,10.0,West,4.6,-,N/A,,Clear,280,2013-06-09 17:53:00
12:53 PM,80.1,43.0,27,29.91,10.0,NNW,5.8,-,N/A,,Clear,340,2013-06-09 18:53:00
1:53 PM,82.9,44.1,25,29.89,10.0,NW,3.5,-,N/A,,Clear,310,2013-06-09 19:53:00
2:53 PM,84.9,43.0,23,29.86,10.0,NW,8.1,-,N/A,,Clear,310,2013-06-09 20:53:00
3:53 PM,86.0,43.0,22,29.84,10.0,NE,5.8,-,N/A,,Clear,50,2013-06-09 21:53:00
4:53 PM,87.1,42.1,21,29.83,10.0,Variable,5.8,-,N/A,,Clear,0,2013-06-09 22:53:00
5:53 PM,86.0,43.0,22,29.82,10.0,ENE,6.9,-,N/A,,Clear,70,2013-06-09 23:53:00
6:53 PM,82.9,45.0,26,29.81,10.0,East,11.5,-,N/A,,Clear,80,2013-06-10 00:53:00
7:53 PM,77.0,46.0,33,29.82,10.0,ESE,10.4,-,N/A,,Clear,110,2013-06-10 01:53:00
8:53 PM,70.0,46.9,44,29.83,10.0,ESE,9.2,-,N/A,,Clear,110,2013-06-10 02:53:00
9:53 PM,64.9,48.0,54,29.86,10.0,ESE,6.9,-,N/A,,Clear,120,2013-06-10 03:53:00
10:53 PM,62.1,46.9,58,29.87,10.0,SE,6.9,-,N/A,,Clear,130,2013-06-10 04:53:00
11:53 PM,59.0,46.9,64,29.87,10.0,SE,8.1,-,N/A,,Clear,140,2013-06-10 05:53:00